TimeAKST,TemperatureF,Dew PointF,Humidity,Sea Level PressureIn,VisibilityMPH,Wind Direction,Wind SpeedMPH,Gust SpeedMPH,PrecipitationIn,Events,Conditions,WindDirDegrees,DateUTC
12:16 AM,48.2,28.4,46,29.61,10.0,NE,8.1,21.9,N/A,,Clear,50,2013-01-13 09:16:00
12:36 AM,44.6,30.2,57,29.62,10.0,ENE,6.9,16.1,N/A,,Clear,60,2013-01-13 09:36:00
12:56 AM,44.6,30.2,57,29.61,10.0,Calm,Calm,-,N/A,,Clear,0,2013-01-13 09:56:00
1:16 AM,46.4,30.2,53,29.60,10.0,SSE,8.1,29.9,N/A,,Clear,150,2013-01-13 10:16:00
1:36 AM,46.4,32.0,57,29.57,10.0,South,18.4,32.2,N/A,,Clear,170,2013-01-13 10:36:00
1:56 AM,50.0,30.2,47,29.55,10.0,South,19.6,43.7,N/A,,Clear,180,2013-01-13 10:56:00
2:16 AM,50.0,28.4,43,29.56,10.0,South,26.5,48.3,N/A,,Clear,170,2013-01-13 11:16:00
2:36 AM,51.8,26.6,38,29.58,10.0,ESE,17.3,42.6,N/A,,Clear,120,2013-01-13 11:36:00
2:56 AM,46.4,30.2,53,29.60,10.0,NE,12.7,27.6,N/A,,Clear,50,2013-01-13 11:56:00
3:16 AM,42.8,32.0,66,29.60,10.0,ENE,10.4,20.7,N/A,,Clear,70,2013-01-13 12:16:00
3:36 AM,42.8,32.0,66,29.61,10.0,NE,9.2,20.7,N/A,,Clear,50,2013-01-13 12:36:00
3:56 AM,41.0,32.0,70,29.61,10.0,NNW,9.2,-,N/A,,Clear,330,2013-01-13 12:56:00
4:16 AM,39.2,33.8,81,29.62,10.0,Calm,Calm,-,N/A,,Clear,0,2013-01-13 13:16:00
4:36 AM,39.2,32.0,75,29.62,10.0,SE,5.8,-,N/A,,Clear,140,2013-01-13 13:36:00
4:56 AM,39.2,33.8,81,29.63,10.0,ESE,4.6,-,N/A,,Clear,120,2013-01-13 13:56:00
5:16 AM,41.0,32.0,70,29.62,10.0,NE,6.9,-,N/A,,Partly Cloudy,50,2013-01-13 14:16:00
5:36 AM,39.2,33.8,81,29.61,7.0,Calm,Calm,-,N/A,,Mostly Cloudy,0,2013-01-13 14:36:00
5:56 AM,39.2,33.8,81,29.62,7.0,Calm,Calm,-,N/A,,Overcast,0,2013-01-13 14:56:00
6:16 AM,39.2,33.8,81,29.62,8.0,Calm,Calm,-,N/A,,Overcast,0,2013-01-13 15:16:00
6:36 AM,39.2,33.8,81,29.62,8.0,NE,3.5,-,N/A,,Overcast,50,2013-01-13 15:36:00
6:56 AM,39.2,33.8,81,29.61,8.0,NNE,5.8,-,N/A,,Overcast,30,2013-01-13 15:56:00
7:16 AM,37.4,32.0,81,29.61,7.0,East,3.5,-,N/A,,Overcast,90,2013-01-13 16:16:00
7:36 AM,39.2,33.8,81,29.61,8.0,Calm,Calm,-,N/A,,Overcast,0,2013-01-13 16:36:00
7:56 AM,39.2,33.8,81,29.61,10.0,Calm,Calm,-,N/A,,Overcast,0,2013-01-13 16:56:00
8:16 AM,39.2,33.8,81,29.61,10.0,East,8.1,-,N/A,,Overcast,90,2013-01-13 17:16:00
8:36 AM,39.2,33.8,81,29.61,10.0,SSE,4.6,-,N/A,,Overcast,150,2013-01-13 17:36:00
8:56 AM,39.2,33.8,81,29.61,9.0,North,11.5,-,N/A,,Overcast,350,2013-01-13 17:56:00
9:16 AM,39.2,33.8,81,29.61,7.0,NNE,5.8,-,N/A,,Overcast,20,2013-01-13 18:16:00
9:36 AM,37.4,33.8,87,29.59,5.0,Calm,Calm,-,N/A,,Overcast,0,2013-01-13 18:36:00
9:56 AM,37.4,33.8,87,29.59,4.0,Calm,Calm,-,N/A,,Overcast,0,2013-01-13 18:56:00
10:16 AM,37.4,33.8,87,29.58,3.0,Calm,Calm,-,N/A,,Overcast,0,2013-01-13 19:16:00
10:36 AM,37.4,33.8,87,29.57,3.0,Calm,Calm,-,N/A,,Overcast,0,2013-01-13 19:36:00
10:56 AM,37.4,33.8,87,29.56,2.5,Calm,Calm,-,N/A,,Overcast,0,2013-01-13 19:56:00
11:16 AM,37.4,33.8,87,29.56,3.0,Calm,Calm,-,N/A,,Overcast,0,2013-01-13 20:16:00
11:36 AM,39.2,33.8,81,29.54,5.0,East,5.8,-,N/A,,Overcast,90,2013-01-13 20:36:00
11:56 AM,39.2,33.8,81,29.54,9.0,East,4.6,-,N/A,,Overcast,80,2013-01-13 20:56:00
12:16 PM,37.4,33.8,87,29.52,10.0,East,6.9,-,N/A,,Overcast,90,2013-01-13 21:16:00
12:36 PM,37.4,33.8,87,29.51,4.0,ENE,5.8,-,N/A,,Overcast,70,2013-01-13 21:36:00
12:56 PM,37.4,33.8,87,29.50,2.0,East,5.8,-,N/A,,Overcast,80,2013-01-13 21:56:00
1:16 PM,37.4,33.8,87,29.47,3.0,East,4.6,-,N/A,,Overcast,100,2013-01-13 22:16:00
1:36 PM,37.4,33.8,87,29.45,3.0,Calm,Calm,-,N/A,,Overcast,0,2013-01-13 22:36:00
1:56 PM,37.4,33.8,87,29.44,2.5,East,4.6,-,N/A,,Overcast,90,2013-01-13 22:56:00
2:16 PM,39.2,33.8,81,29.44,2.5,East,4.6,-,N/A,,Overcast,90,2013-01-13 23:16:00
2:36 PM,37.4,33.8,87,29.41,1.8,Calm,Calm,-,N/A,,Overcast,0,2013-01-13 23:36:00
2:56 PM,37.4,33.8,87,29.41,2.5,NNE,4.6,-,N/A,,Overcast,30,2013-01-13 23:56:00
3:16 PM,37.4,35.6,93,29.41,3.0,NNE,5.8,-,N/A,,Overcast,20,2013-01-14 00:16:00
3:36 PM,37.4,35.6,93,29.41,3.0,NNE,5.8,-,N/A,,Overcast,30,2013-01-14 00:36:00
3:56 PM,37.4,33.8,87,29.40,2.0,NNE,5.8,-,N/A,,Overcast,30,2013-01-14 00:56:00
4:16 PM,37.4,33.8,87,29.39,1.2,NNE,5.8,-,N/A,,Overcast,20,2013-01-14 01:16:00
4:36 PM,37.4,33.8,87,29.38,1.0,NNE,8.1,-,N/A,,Overcast,30,2013-01-14 01:36:00
4:56 PM,37.4,33.8,87,29.37,1.2,NNE,8.1,-,N/A,,Overcast,30,2013-01-14 01:56:00
5:16 PM,37.4,33.8,87,29.37,1.8,ENE,6.9,-,N/A,,Overcast,70,2013-01-14 02:16:00
5:36 PM,37.4,33.8,87,29.35,10.0,ESE,4.6,-,N/A,,Mostly Cloudy,120,2013-01-14 02:36:00
5:56 PM,37.4,33.8,87,29.35,10.0,NNE,4.6,-,N/A,,Mostly Cloudy,20,2013-01-14 02:56:00
6:16 PM,37.4,33.8,87,29.35,10.0,NNE,5.8,-,N/A,,Mostly Cloudy,30,2013-01-14 03:16:00
6:36 PM,37.4,33.8,87,29.35,10.0,ENE,4.6,-,N/A,,Scattered Clouds,70,2013-01-14 03:36:00
6:56 PM,37.4,33.8,87,29.34,10.0,NE,3.5,-,N/A,,Partly Cloudy,40,2013-01-14 03:56:00
7:16 PM,39.2,35.6,87,29.35,10.0,NE,5.8,-,N/A,,Partly Cloudy,40,2013-01-14 04:16:00
7:36 PM,44.6,37.4,76,29.35,10.0,South,19.6,33.4,N/A,,Mostly Cloudy,170,2013-01-14 04:36:00
7:56 PM,44.6,35.6,71,29.36,10.0,SSE,17.3,24.2,N/A,,Mostly Cloudy,160,2013-01-14 04:56:00
8:36 PM,39.2,33.8,81,29.36,10.0,NE,6.9,-,N/A,,Mostly Cloudy,50,2013-01-14 05:36:00
8:56 PM,42.8,35.6,76,29.35,10.0,SSE,11.5,-,N/A,,Scattered Clouds,150,2013-01-14 05:56:00
9:16 PM,44.6,35.6,71,29.33,10.0,South,27.6,32.2,N/A,,Clear,170,2013-01-14 06:16:00
9:36 PM,44.6,33.8,66,29.34,10.0,South,24.2,31.1,N/A,,Scattered Clouds,170,2013-01-14 06:36:00
10:16 PM,42.8,33.8,70,29.34,10.0,SE,18.4,-,N/A,,Partly Cloudy,140,2013-01-14 07:16:00
10:36 PM,42.8,33.8,70,29.35,10.0,SSE,13.8,-,N/A,,Clear,150,2013-01-14 07:36:00
10:56 PM,44.6,30.2,57,29.34,10.0,SSE,16.1,31.1,N/A,,Clear,160,2013-01-14 07:56:00
11:16 PM,44.6,30.2,57,29.34,10.0,SSE,15.0,23.0,N/A,,Clear,150,2013-01-14 08:16:00
11:36 PM,42.8,32.0,66,29.34,10.0,SE,11.5,-,N/A,,Scattered Clouds,130,2013-01-14 08:36:00
11:56 PM,41.0,33.8,76,29.33,10.0,SE,11.5,16.1,N/A,,Overcast,130,2013-01-14 08:56:00